Index of /20260430/WXO-DD/model_gdps/15km/12/240
Name Last modified Size Description
Parent Directory -
20260430T12Z_MSC_GDPS_AbsoluteVorticity_IsbL-0200_LatLon0.15_PT240H.grib2 2026-04-30 16:40 1.2M
20260430T12Z_MSC_GDPS_AbsoluteVorticity_IsbL-0250_LatLon0.15_PT240H.grib2 2026-04-30 16:40 1.3M
20260430T12Z_MSC_GDPS_AbsoluteVorticity_IsbL-0500_LatLon0.15_PT240H.grib2 2026-04-30 16:40 1.4M
20260430T12Z_MSC_GDPS_AbsoluteVorticity_IsbL-0700_LatLon0.15_PT240H.grib2 2026-04-30 16:40 1.3M
20260430T12Z_MSC_GDPS_AbsoluteVorticity_IsbL-0850_LatLon0.15_PT240H.grib2 2026-04-30 16:40 1.6M
20260430T12Z_MSC_GDPS_AirTemp-Max_AGL-2m_LatLon0.15_PT240H.grib2 2026-04-30 16:40 745K
20260430T12Z_MSC_GDPS_AirTemp-Min_AGL-2m_LatLon0.15_PT240H.grib2 2026-04-30 16:40 796K
20260430T12Z_MSC_GDPS_AirTemp_AGL-120m_LatLon0.15_PT240H.grib2 2026-04-30 16:40 910K
20260430T12Z_MSC_GDPS_AirTemp_AGL-2m_LatLon0.15_PT240H.grib2 2026-04-30 16:40 1.0M
20260430T12Z_MSC_GDPS_AirTemp_AGL-40m_LatLon0.15_PT240H.grib2 2026-04-30 16:40 813K
20260430T12Z_MSC_GDPS_AirTemp_AGL-80m_LatLon0.15_PT240H.grib2 2026-04-30 16:40 919K
20260430T12Z_MSC_GDPS_AirTemp_IsbL-0001_LatLon0.15_PT240H.grib2 2026-04-30 16:40 662K
20260430T12Z_MSC_GDPS_AirTemp_IsbL-0005_LatLon0.15_PT240H.grib2 2026-04-30 16:40 533K
20260430T12Z_MSC_GDPS_AirTemp_IsbL-0010_LatLon0.15_PT240H.grib2 2026-04-30 16:40 699K
20260430T12Z_MSC_GDPS_AirTemp_IsbL-0020_LatLon0.15_PT240H.grib2 2026-04-30 16:40 789K
20260430T12Z_MSC_GDPS_AirTemp_IsbL-0030_LatLon0.15_PT240H.grib2 2026-04-30 16:40 838K
20260430T12Z_MSC_GDPS_AirTemp_IsbL-0050_LatLon0.15_PT240H.grib2 2026-04-30 16:40 879K
20260430T12Z_MSC_GDPS_AirTemp_IsbL-0100_LatLon0.15_PT240H.grib2 2026-04-30 16:40 963K
20260430T12Z_MSC_GDPS_AirTemp_IsbL-0150_LatLon0.15_PT240H.grib2 2026-04-30 16:40 958K
20260430T12Z_MSC_GDPS_AirTemp_IsbL-0175_LatLon0.15_PT240H.grib2 2026-04-30 16:40 946K
20260430T12Z_MSC_GDPS_AirTemp_IsbL-0200_LatLon0.15_PT240H.grib2 2026-04-30 16:40 954K
20260430T12Z_MSC_GDPS_AirTemp_IsbL-0225_LatLon0.15_PT240H.grib2 2026-04-30 16:40 961K
20260430T12Z_MSC_GDPS_AirTemp_IsbL-0250_LatLon0.15_PT240H.grib2 2026-04-30 16:40 1.0M
20260430T12Z_MSC_GDPS_AirTemp_IsbL-0275_LatLon0.15_PT240H.grib2 2026-04-30 16:40 1.0M
20260430T12Z_MSC_GDPS_AirTemp_IsbL-0300_LatLon0.15_PT240H.grib2 2026-04-30 16:40 942K
20260430T12Z_MSC_GDPS_AirTemp_IsbL-0350_LatLon0.15_PT240H.grib2 2026-04-30 16:40 929K
20260430T12Z_MSC_GDPS_AirTemp_IsbL-0400_LatLon0.15_PT240H.grib2 2026-04-30 16:40 941K
20260430T12Z_MSC_GDPS_AirTemp_IsbL-0450_LatLon0.15_PT240H.grib2 2026-04-30 16:40 963K
20260430T12Z_MSC_GDPS_AirTemp_IsbL-0500_LatLon0.15_PT240H.grib2 2026-04-30 16:40 1.0M
20260430T12Z_MSC_GDPS_AirTemp_IsbL-0550_LatLon0.15_PT240H.grib2 2026-04-30 16:40 800K
20260430T12Z_MSC_GDPS_AirTemp_IsbL-0600_LatLon0.15_PT240H.grib2 2026-04-30 16:40 893K
20260430T12Z_MSC_GDPS_AirTemp_IsbL-0650_LatLon0.15_PT240H.grib2 2026-04-30 16:40 920K
20260430T12Z_MSC_GDPS_AirTemp_IsbL-0700_LatLon0.15_PT240H.grib2 2026-04-30 16:40 957K
20260430T12Z_MSC_GDPS_AirTemp_IsbL-0750_LatLon0.15_PT240H.grib2 2026-04-30 16:40 1.0M
20260430T12Z_MSC_GDPS_AirTemp_IsbL-0800_LatLon0.15_PT240H.grib2 2026-04-30 16:40 1.1M
20260430T12Z_MSC_GDPS_AirTemp_IsbL-0850_LatLon0.15_PT240H.grib2 2026-04-30 16:40 1.1M
20260430T12Z_MSC_GDPS_AirTemp_IsbL-0875_LatLon0.15_PT240H.grib2 2026-04-30 16:40 1.2M
20260430T12Z_MSC_GDPS_AirTemp_IsbL-0900_LatLon0.15_PT240H.grib2 2026-04-30 16:40 1.2M
20260430T12Z_MSC_GDPS_AirTemp_IsbL-0925_LatLon0.15_PT240H.grib2 2026-04-30 16:40 1.1M
20260430T12Z_MSC_GDPS_AirTemp_IsbL-0950_LatLon0.15_PT240H.grib2 2026-04-30 16:40 1.1M
20260430T12Z_MSC_GDPS_AirTemp_IsbL-0970_LatLon0.15_PT240H.grib2 2026-04-30 16:40 1.2M
20260430T12Z_MSC_GDPS_AirTemp_IsbL-0985_LatLon0.15_PT240H.grib2 2026-04-30 16:40 1.2M
20260430T12Z_MSC_GDPS_AirTemp_IsbL-1000_LatLon0.15_PT240H.grib2 2026-04-30 16:40 1.1M
20260430T12Z_MSC_GDPS_AirTemp_IsbL-1015_LatLon0.15_PT240H.grib2 2026-04-30 16:40 1.1M
20260430T12Z_MSC_GDPS_Albedo_Sfc_LatLon0.15_PT240H.grib2 2026-04-30 16:40 240K
20260430T12Z_MSC_GDPS_CAPE_Sfc_LatLon0.15_PT240H.grib2 2026-04-30 16:40 4.1M
20260430T12Z_MSC_GDPS_CIN_Sfc_LatLon0.15_PT240H.grib2 2026-04-30 16:40 3.0M
20260430T12Z_MSC_GDPS_CloudWater_EAtm_LatLon0.15_PT240H.grib2 2026-04-30 16:40 542K
20260430T12Z_MSC_GDPS_ConvectivePrecip-Accum_Sfc_LatLon0.15_PT240H.grib2 2026-04-30 16:40 3.8M
20260430T12Z_MSC_GDPS_DewPointDepression_AGL-2m_LatLon0.15_PT240H.grib2 2026-04-30 16:40 757K
20260430T12Z_MSC_GDPS_DewPointDepression_IsbL-0010_LatLon0.15_PT240H.grib2 2026-04-30 16:40 56K
20260430T12Z_MSC_GDPS_DewPointDepression_IsbL-0020_LatLon0.15_PT240H.grib2 2026-04-30 16:40 77K
20260430T12Z_MSC_GDPS_DewPointDepression_IsbL-0030_LatLon0.15_PT240H.grib2 2026-04-30 16:40 91K
20260430T12Z_MSC_GDPS_DewPointDepression_IsbL-0050_LatLon0.15_PT240H.grib2 2026-04-30 16:40 378K
20260430T12Z_MSC_GDPS_DewPointDepression_IsbL-0100_LatLon0.15_PT240H.grib2 2026-04-30 16:40 389K
20260430T12Z_MSC_GDPS_DewPointDepression_IsbL-0150_LatLon0.15_PT240H.grib2 2026-04-30 16:40 494K
20260430T12Z_MSC_GDPS_DewPointDepression_IsbL-0175_LatLon0.15_PT240H.grib2 2026-04-30 16:40 576K
20260430T12Z_MSC_GDPS_DewPointDepression_IsbL-0200_LatLon0.15_PT240H.grib2 2026-04-30 16:40 676K
20260430T12Z_MSC_GDPS_DewPointDepression_IsbL-0225_LatLon0.15_PT240H.grib2 2026-04-30 16:40 768K
20260430T12Z_MSC_GDPS_DewPointDepression_IsbL-0250_LatLon0.15_PT240H.grib2 2026-04-30 16:40 858K
20260430T12Z_MSC_GDPS_DewPointDepression_IsbL-0275_LatLon0.15_PT240H.grib2 2026-04-30 16:40 879K
20260430T12Z_MSC_GDPS_DewPointDepression_IsbL-0300_LatLon0.15_PT240H.grib2 2026-04-30 16:40 922K
20260430T12Z_MSC_GDPS_DewPointDepression_IsbL-0350_LatLon0.15_PT240H.grib2 2026-04-30 16:40 956K
20260430T12Z_MSC_GDPS_DewPointDepression_IsbL-0400_LatLon0.15_PT240H.grib2 2026-04-30 16:40 1.0M
20260430T12Z_MSC_GDPS_DewPointDepression_IsbL-0450_LatLon0.15_PT240H.grib2 2026-04-30 16:40 1.0M
20260430T12Z_MSC_GDPS_DewPointDepression_IsbL-0500_LatLon0.15_PT240H.grib2 2026-04-30 16:40 1.0M
20260430T12Z_MSC_GDPS_DewPointDepression_IsbL-0550_LatLon0.15_PT240H.grib2 2026-04-30 16:40 1.0M
20260430T12Z_MSC_GDPS_DewPointDepression_IsbL-0600_LatLon0.15_PT240H.grib2 2026-04-30 16:40 1.1M
20260430T12Z_MSC_GDPS_DewPointDepression_IsbL-0650_LatLon0.15_PT240H.grib2 2026-04-30 16:40 1.1M
20260430T12Z_MSC_GDPS_DewPointDepression_IsbL-0700_LatLon0.15_PT240H.grib2 2026-04-30 16:40 1.1M
20260430T12Z_MSC_GDPS_DewPointDepression_IsbL-0750_LatLon0.15_PT240H.grib2 2026-04-30 16:40 1.1M
20260430T12Z_MSC_GDPS_DewPointDepression_IsbL-0800_LatLon0.15_PT240H.grib2 2026-04-30 16:40 1.2M
20260430T12Z_MSC_GDPS_DewPointDepression_IsbL-0850_LatLon0.15_PT240H.grib2 2026-04-30 16:40 1.2M
20260430T12Z_MSC_GDPS_DewPointDepression_IsbL-0875_LatLon0.15_PT240H.grib2 2026-04-30 16:40 1.1M
20260430T12Z_MSC_GDPS_DewPointDepression_IsbL-0900_LatLon0.15_PT240H.grib2 2026-04-30 16:40 1.1M
20260430T12Z_MSC_GDPS_DewPointDepression_IsbL-0925_LatLon0.15_PT240H.grib2 2026-04-30 16:40 1.0M
20260430T12Z_MSC_GDPS_DewPointDepression_IsbL-0950_LatLon0.15_PT240H.grib2 2026-04-30 16:40 1.0M
20260430T12Z_MSC_GDPS_DewPointDepression_IsbL-0970_LatLon0.15_PT240H.grib2 2026-04-30 16:40 1.0M
20260430T12Z_MSC_GDPS_DewPointDepression_IsbL-0985_LatLon0.15_PT240H.grib2 2026-04-30 16:40 1.0M
20260430T12Z_MSC_GDPS_DewPointDepression_IsbL-1000_LatLon0.15_PT240H.grib2 2026-04-30 16:40 968K
20260430T12Z_MSC_GDPS_DewPointDepression_IsbL-1015_LatLon0.15_PT240H.grib2 2026-04-30 16:40 910K
20260430T12Z_MSC_GDPS_DewPoint_AGL-2m_LatLon0.15_PT240H.grib2 2026-04-30 16:40 611K
20260430T12Z_MSC_GDPS_DownwardLongwaveRadiationFlux-Accum_Sfc_LatLon0.15_PT240H.grib2 2026-04-30 16:40 747K
20260430T12Z_MSC_GDPS_DownwardShortwaveRadiationFlux-Accum_NTAtm_LatLon0.15_PT240H.grib2 2026-04-30 16:40 237K
20260430T12Z_MSC_GDPS_DownwardShortwaveRadiationFlux-Accum_Sfc_LatLon0.15_PT240H.grib2 2026-04-30 16:40 920K
20260430T12Z_MSC_GDPS_FreezingRain-Accum12h_Sfc_LatLon0.15_PT240H.grib2 2026-04-30 16:40 99K
20260430T12Z_MSC_GDPS_FreezingRain-Accum24h_Sfc_LatLon0.15_PT240H.grib2 2026-04-30 16:40 108K
20260430T12Z_MSC_GDPS_FreezingRain-Accum6h_Sfc_LatLon0.15_PT240H.grib2 2026-04-30 16:40 79K
20260430T12Z_MSC_GDPS_FreezingRain-Accum_Sfc_LatLon0.15_PT240H.grib2 2026-04-30 16:40 472K
20260430T12Z_MSC_GDPS_GeopotentialHeight_IsbL-0001_LatLon0.15_PT240H.grib2 2026-04-30 16:40 435K
20260430T12Z_MSC_GDPS_GeopotentialHeight_IsbL-0005_LatLon0.15_PT240H.grib2 2026-04-30 16:40 489K
20260430T12Z_MSC_GDPS_GeopotentialHeight_IsbL-0010_LatLon0.15_PT240H.grib2 2026-04-30 16:40 477K
20260430T12Z_MSC_GDPS_GeopotentialHeight_IsbL-0020_LatLon0.15_PT240H.grib2 2026-04-30 16:40 462K
20260430T12Z_MSC_GDPS_GeopotentialHeight_IsbL-0030_LatLon0.15_PT240H.grib2 2026-04-30 16:40 417K
20260430T12Z_MSC_GDPS_GeopotentialHeight_IsbL-0050_LatLon0.15_PT240H.grib2 2026-04-30 16:40 570K
20260430T12Z_MSC_GDPS_GeopotentialHeight_IsbL-0100_LatLon0.15_PT240H.grib2 2026-04-30 16:40 610K
20260430T12Z_MSC_GDPS_GeopotentialHeight_IsbL-0150_LatLon0.15_PT240H.grib2 2026-04-30 16:40 632K
20260430T12Z_MSC_GDPS_GeopotentialHeight_IsbL-0175_LatLon0.15_PT240H.grib2 2026-04-30 16:40 636K
20260430T12Z_MSC_GDPS_GeopotentialHeight_IsbL-0200_LatLon0.15_PT240H.grib2 2026-04-30 16:40 641K
20260430T12Z_MSC_GDPS_GeopotentialHeight_IsbL-0225_LatLon0.15_PT240H.grib2 2026-04-30 16:40 639K
20260430T12Z_MSC_GDPS_GeopotentialHeight_IsbL-0250_LatLon0.15_PT240H.grib2 2026-04-30 16:40 644K
20260430T12Z_MSC_GDPS_GeopotentialHeight_IsbL-0275_LatLon0.15_PT240H.grib2 2026-04-30 16:40 646K
20260430T12Z_MSC_GDPS_GeopotentialHeight_IsbL-0300_LatLon0.15_PT240H.grib2 2026-04-30 16:40 638K
20260430T12Z_MSC_GDPS_GeopotentialHeight_IsbL-0350_LatLon0.15_PT240H.grib2 2026-04-30 16:40 635K
20260430T12Z_MSC_GDPS_GeopotentialHeight_IsbL-0400_LatLon0.15_PT240H.grib2 2026-04-30 16:40 624K
20260430T12Z_MSC_GDPS_GeopotentialHeight_IsbL-0450_LatLon0.15_PT240H.grib2 2026-04-30 16:40 612K
20260430T12Z_MSC_GDPS_GeopotentialHeight_IsbL-0500_LatLon0.15_PT240H.grib2 2026-04-30 16:40 595K
20260430T12Z_MSC_GDPS_GeopotentialHeight_IsbL-0550_LatLon0.15_PT240H.grib2 2026-04-30 16:40 525K
20260430T12Z_MSC_GDPS_GeopotentialHeight_IsbL-0600_LatLon0.15_PT240H.grib2 2026-04-30 16:40 520K
20260430T12Z_MSC_GDPS_GeopotentialHeight_IsbL-0650_LatLon0.15_PT240H.grib2 2026-04-30 16:40 520K
20260430T12Z_MSC_GDPS_GeopotentialHeight_IsbL-0700_LatLon0.15_PT240H.grib2 2026-04-30 16:40 693K
20260430T12Z_MSC_GDPS_GeopotentialHeight_IsbL-0750_LatLon0.15_PT240H.grib2 2026-04-30 16:40 694K
20260430T12Z_MSC_GDPS_GeopotentialHeight_IsbL-0800_LatLon0.15_PT240H.grib2 2026-04-30 16:40 708K
20260430T12Z_MSC_GDPS_GeopotentialHeight_IsbL-0850_LatLon0.15_PT240H.grib2 2026-04-30 16:40 719K
20260430T12Z_MSC_GDPS_GeopotentialHeight_IsbL-0875_LatLon0.15_PT240H.grib2 2026-04-30 16:40 722K
20260430T12Z_MSC_GDPS_GeopotentialHeight_IsbL-0900_LatLon0.15_PT240H.grib2 2026-04-30 16:40 728K
20260430T12Z_MSC_GDPS_GeopotentialHeight_IsbL-0925_LatLon0.15_PT240H.grib2 2026-04-30 16:40 732K
20260430T12Z_MSC_GDPS_GeopotentialHeight_IsbL-0950_LatLon0.15_PT240H.grib2 2026-04-30 16:40 741K
20260430T12Z_MSC_GDPS_GeopotentialHeight_IsbL-0970_LatLon0.15_PT240H.grib2 2026-04-30 16:40 752K
20260430T12Z_MSC_GDPS_GeopotentialHeight_IsbL-0985_LatLon0.15_PT240H.grib2 2026-04-30 16:40 766K
20260430T12Z_MSC_GDPS_GeopotentialHeight_IsbL-1000_LatLon0.15_PT240H.grib2 2026-04-30 16:40 788K
20260430T12Z_MSC_GDPS_GeopotentialHeight_IsbL-1015_LatLon0.15_PT240H.grib2 2026-04-30 16:40 810K
20260430T12Z_MSC_GDPS_Humidex_Sfc_LatLon0.15_PT240H.grib2 2026-04-30 16:40 5.3M
20260430T12Z_MSC_GDPS_IcePellets-Accum12h_Sfc_LatLon0.15_PT240H.grib2 2026-04-30 16:40 59K
20260430T12Z_MSC_GDPS_IcePellets-Accum24h_Sfc_LatLon0.15_PT240H.grib2 2026-04-30 16:40 74K
20260430T12Z_MSC_GDPS_IcePellets-Accum6h_Sfc_LatLon0.15_PT240H.grib2 2026-04-30 16:40 47K
20260430T12Z_MSC_GDPS_IcePellets-Accum_Sfc_LatLon0.15_PT240H.grib2 2026-04-30 16:40 211K
20260430T12Z_MSC_GDPS_KIndex_Sfc_LatLon0.15_PT240H.grib2 2026-04-30 16:40 6.5M
20260430T12Z_MSC_GDPS_LatentHeatNetFlux_Sfc_LatLon0.15_PT240H.grib2 2026-04-30 16:40 557K
20260430T12Z_MSC_GDPS_LiftedIndex-MU-VT_IsbL-0500_LatLon0.15_PT240H.grib2 2026-04-30 16:40 5.4M
20260430T12Z_MSC_GDPS_NetLongwaveRadiationFlux-Accum_Sfc_LatLon0.15_PT240H.grib2 2026-04-30 16:40 1.0M
20260430T12Z_MSC_GDPS_NetShortwaveRadiationFlux-Accum_Sfc_LatLon0.15_PT240H.grib2 2026-04-30 16:40 918K
20260430T12Z_MSC_GDPS_O3MixingRatio_Sfc_LatLon0.15_PT240H.grib2 2026-04-30 16:46 2.2M
20260430T12Z_MSC_GDPS_O3_EAtm_LatLon0.15_PT240H.grib2 2026-04-30 16:46 2.4M
20260430T12Z_MSC_GDPS_PlanetaryBoundaryLayerHeight_Sfc_LatLon0.15_PT240H.grib2 2026-04-30 16:40 2.5M
20260430T12Z_MSC_GDPS_Precip-Accum12h_Sfc_LatLon0.15_PT240H.grib2 2026-04-30 16:40 4.1M
20260430T12Z_MSC_GDPS_Precip-Accum24h_Sfc_LatLon0.15_PT240H.grib2 2026-04-30 16:40 4.3M
20260430T12Z_MSC_GDPS_Precip-Accum6h_Sfc_LatLon0.15_PT240H.grib2 2026-04-30 16:40 3.9M
20260430T12Z_MSC_GDPS_Precip-Accum_Sfc_LatLon0.15_PT240H.grib2 2026-04-30 16:40 5.5M
20260430T12Z_MSC_GDPS_PrecipRate_Sfc_LatLon0.15_PT240H.grib2 2026-04-30 16:40 3.3M
20260430T12Z_MSC_GDPS_PrecipType-Instant_Sfc_LatLon0.15_PT240H.grib2 2026-04-30 16:40 1.6M
20260430T12Z_MSC_GDPS_Pressure_MSL_LatLon0.15_PT240H.grib2 2026-04-30 16:40 823K
20260430T12Z_MSC_GDPS_Pressure_PVU-1.5_LatLon0.15_PT240H.grib2 2026-04-30 16:40 5.8M
20260430T12Z_MSC_GDPS_Pressure_PVU-1_LatLon0.15_PT240H.grib2 2026-04-30 16:40 6.0M
20260430T12Z_MSC_GDPS_Pressure_PVU-2_LatLon0.15_PT240H.grib2 2026-04-30 16:40 5.6M
20260430T12Z_MSC_GDPS_Pressure_Sfc_LatLon0.15_PT240H.grib2 2026-04-30 16:40 1.1M
20260430T12Z_MSC_GDPS_RadiativeTemp_Sfc_LatLon0.15_PT240H.grib2 2026-04-30 16:40 506K
20260430T12Z_MSC_GDPS_Rain-Accum12h_Sfc_LatLon0.15_PT240H.grib2 2026-04-30 16:40 2.8M
20260430T12Z_MSC_GDPS_Rain-Accum24h_Sfc_LatLon0.15_PT240H.grib2 2026-04-30 16:40 3.0M
20260430T12Z_MSC_GDPS_Rain-Accum6h_Sfc_LatLon0.15_PT240H.grib2 2026-04-30 16:40 2.5M
20260430T12Z_MSC_GDPS_Rain-Accum_Sfc_LatLon0.15_PT240H.grib2 2026-04-30 16:40 4.3M
20260430T12Z_MSC_GDPS_RelativeHumidity_AGL-2m_LatLon0.15_PT240H.grib2 2026-04-30 16:40 1.1M
20260430T12Z_MSC_GDPS_RelativeHumidity_IsbL-0010_LatLon0.15_PT240H.grib2 2026-04-30 16:40 137K
20260430T12Z_MSC_GDPS_RelativeHumidity_IsbL-0020_LatLon0.15_PT240H.grib2 2026-04-30 16:40 108K
20260430T12Z_MSC_GDPS_RelativeHumidity_IsbL-0030_LatLon0.15_PT240H.grib2 2026-04-30 16:40 183K
20260430T12Z_MSC_GDPS_RelativeHumidity_IsbL-0050_LatLon0.15_PT240H.grib2 2026-04-30 16:40 332K
20260430T12Z_MSC_GDPS_RelativeHumidity_IsbL-0100_LatLon0.15_PT240H.grib2 2026-04-30 16:40 490K
20260430T12Z_MSC_GDPS_RelativeHumidity_IsbL-0150_LatLon0.15_PT240H.grib2 2026-04-30 16:40 678K
20260430T12Z_MSC_GDPS_RelativeHumidity_IsbL-0175_LatLon0.15_PT240H.grib2 2026-04-30 16:40 597K
20260430T12Z_MSC_GDPS_RelativeHumidity_IsbL-0200_LatLon0.15_PT240H.grib2 2026-04-30 16:40 699K
20260430T12Z_MSC_GDPS_RelativeHumidity_IsbL-0225_LatLon0.15_PT240H.grib2 2026-04-30 16:40 790K
20260430T12Z_MSC_GDPS_RelativeHumidity_IsbL-0250_LatLon0.15_PT240H.grib2 2026-04-30 16:40 866K
20260430T12Z_MSC_GDPS_RelativeHumidity_IsbL-0275_LatLon0.15_PT240H.grib2 2026-04-30 16:40 889K
20260430T12Z_MSC_GDPS_RelativeHumidity_IsbL-0300_LatLon0.15_PT240H.grib2 2026-04-30 16:40 930K
20260430T12Z_MSC_GDPS_RelativeHumidity_IsbL-0350_LatLon0.15_PT240H.grib2 2026-04-30 16:40 949K
20260430T12Z_MSC_GDPS_RelativeHumidity_IsbL-0400_LatLon0.15_PT240H.grib2 2026-04-30 16:40 971K
20260430T12Z_MSC_GDPS_RelativeHumidity_IsbL-0450_LatLon0.15_PT240H.grib2 2026-04-30 16:40 1.0M
20260430T12Z_MSC_GDPS_RelativeHumidity_IsbL-0500_LatLon0.15_PT240H.grib2 2026-04-30 16:40 1.0M
20260430T12Z_MSC_GDPS_RelativeHumidity_IsbL-0550_LatLon0.15_PT240H.grib2 2026-04-30 16:40 1.0M
20260430T12Z_MSC_GDPS_RelativeHumidity_IsbL-0600_LatLon0.15_PT240H.grib2 2026-04-30 16:40 1.1M
20260430T12Z_MSC_GDPS_RelativeHumidity_IsbL-0650_LatLon0.15_PT240H.grib2 2026-04-30 16:40 1.1M
20260430T12Z_MSC_GDPS_RelativeHumidity_IsbL-0700_LatLon0.15_PT240H.grib2 2026-04-30 16:40 1.1M
20260430T12Z_MSC_GDPS_RelativeHumidity_IsbL-0750_LatLon0.15_PT240H.grib2 2026-04-30 16:40 1.1M
20260430T12Z_MSC_GDPS_RelativeHumidity_IsbL-0800_LatLon0.15_PT240H.grib2 2026-04-30 16:40 1.2M
20260430T12Z_MSC_GDPS_RelativeHumidity_IsbL-0850_LatLon0.15_PT240H.grib2 2026-04-30 16:40 1.3M
20260430T12Z_MSC_GDPS_RelativeHumidity_IsbL-0875_LatLon0.15_PT240H.grib2 2026-04-30 16:40 1.3M
20260430T12Z_MSC_GDPS_RelativeHumidity_IsbL-0900_LatLon0.15_PT240H.grib2 2026-04-30 16:40 1.2M
20260430T12Z_MSC_GDPS_RelativeHumidity_IsbL-0925_LatLon0.15_PT240H.grib2 2026-04-30 16:40 1.2M
20260430T12Z_MSC_GDPS_RelativeHumidity_IsbL-0950_LatLon0.15_PT240H.grib2 2026-04-30 16:40 1.2M
20260430T12Z_MSC_GDPS_RelativeHumidity_IsbL-0970_LatLon0.15_PT240H.grib2 2026-04-30 16:40 1.2M
20260430T12Z_MSC_GDPS_RelativeHumidity_IsbL-0985_LatLon0.15_PT240H.grib2 2026-04-30 16:40 1.1M
20260430T12Z_MSC_GDPS_RelativeHumidity_IsbL-1000_LatLon0.15_PT240H.grib2 2026-04-30 16:40 1.1M
20260430T12Z_MSC_GDPS_RelativeHumidity_IsbL-1015_LatLon0.15_PT240H.grib2 2026-04-30 16:40 1.0M
20260430T12Z_MSC_GDPS_RelativeVorticity_IsbL-0200_LatLon0.15_PT240H.grib2 2026-04-30 16:40 1.5M
20260430T12Z_MSC_GDPS_RelativeVorticity_IsbL-0250_LatLon0.15_PT240H.grib2 2026-04-30 16:40 1.3M
20260430T12Z_MSC_GDPS_RelativeVorticity_IsbL-0500_LatLon0.15_PT240H.grib2 2026-04-30 16:40 1.4M
20260430T12Z_MSC_GDPS_RelativeVorticity_IsbL-0700_LatLon0.15_PT240H.grib2 2026-04-30 16:40 1.3M
20260430T12Z_MSC_GDPS_RelativeVorticity_IsbL-0850_LatLon0.15_PT240H.grib2 2026-04-30 16:40 1.6M
20260430T12Z_MSC_GDPS_Runoff-Accum_Sfc_LatLon0.15_PT240H.grib2 2026-04-30 16:40 143K
20260430T12Z_MSC_GDPS_SensibleHeatNetFlux_Sfc_LatLon0.15_PT240H.grib2 2026-04-30 16:40 488K
20260430T12Z_MSC_GDPS_ShowalterIndex_IsbL-0500_LatLon0.15_PT240H.grib2 2026-04-30 16:40 6.2M
20260430T12Z_MSC_GDPS_Snow-Accum12h_Sfc_LatLon0.15_PT240H.grib2 2026-04-30 16:40 1.3M
20260430T12Z_MSC_GDPS_Snow-Accum24h_Sfc_LatLon0.15_PT240H.grib2 2026-04-30 16:40 1.5M
20260430T12Z_MSC_GDPS_Snow-Accum6h_Sfc_LatLon0.15_PT240H.grib2 2026-04-30 16:40 1.4M
20260430T12Z_MSC_GDPS_Snow-Accum_Sfc_LatLon0.15_PT240H.grib2 2026-04-30 16:40 2.2M
20260430T12Z_MSC_GDPS_SnowDensity_Sfc_LatLon0.15_PT240H.grib2 2026-04-30 16:40 256K
20260430T12Z_MSC_GDPS_SnowDepth_Sfc_LatLon0.15_PT240H.grib2 2026-04-30 16:40 1.7M
20260430T12Z_MSC_GDPS_SoilTemp_DBS-0to10cm_LatLon0.15_PT240H.grib2 2026-04-30 16:40 516K
20260430T12Z_MSC_GDPS_SoilTemp_Sfc_LatLon0.15_PT240H.grib2 2026-04-30 16:40 578K
20260430T12Z_MSC_GDPS_SoilVolumetricIceContent_Sfc_LatLon0.15_PT240H.grib2 2026-04-30 16:40 177K
20260430T12Z_MSC_GDPS_SoilVolumetricWaterContent_DBS-0to10cm_LatLon0.15_PT240H.grib2 2026-04-30 16:40 597K
20260430T12Z_MSC_GDPS_SoilVolumetricWaterContent_DBS-0to1cm_LatLon0.15_PT240H.grib2 2026-04-30 16:40 645K
20260430T12Z_MSC_GDPS_SpecificHumidity_AGL-120m_LatLon0.15_PT240H.grib2 2026-04-30 16:40 1.1M
20260430T12Z_MSC_GDPS_SpecificHumidity_AGL-2m_LatLon0.15_PT240H.grib2 2026-04-30 16:40 1.2M
20260430T12Z_MSC_GDPS_SpecificHumidity_AGL-40m_LatLon0.15_PT240H.grib2 2026-04-30 16:40 1.1M
20260430T12Z_MSC_GDPS_SpecificHumidity_AGL-80m_LatLon0.15_PT240H.grib2 2026-04-30 16:40 1.1M
20260430T12Z_MSC_GDPS_SpecificHumidity_IsbL-0001_LatLon0.15_PT240H.grib2 2026-04-30 16:40 1.1M
20260430T12Z_MSC_GDPS_SpecificHumidity_IsbL-0005_LatLon0.15_PT240H.grib2 2026-04-30 16:40 1.0M
20260430T12Z_MSC_GDPS_SpecificHumidity_IsbL-0010_LatLon0.15_PT240H.grib2 2026-04-30 16:40 1.1M
20260430T12Z_MSC_GDPS_SpecificHumidity_IsbL-0020_LatLon0.15_PT240H.grib2 2026-04-30 16:40 1.1M
20260430T12Z_MSC_GDPS_SpecificHumidity_IsbL-0030_LatLon0.15_PT240H.grib2 2026-04-30 16:40 1.4M
20260430T12Z_MSC_GDPS_SpecificHumidity_IsbL-0050_LatLon0.15_PT240H.grib2 2026-04-30 16:40 1.4M
20260430T12Z_MSC_GDPS_SpecificHumidity_IsbL-0100_LatLon0.15_PT240H.grib2 2026-04-30 16:40 1.2M
20260430T12Z_MSC_GDPS_SpecificHumidity_IsbL-0150_LatLon0.15_PT240H.grib2 2026-04-30 16:40 1.2M
20260430T12Z_MSC_GDPS_SpecificHumidity_IsbL-0175_LatLon0.15_PT240H.grib2 2026-04-30 16:40 1.2M
20260430T12Z_MSC_GDPS_SpecificHumidity_IsbL-0200_LatLon0.15_PT240H.grib2 2026-04-30 16:40 1.3M
20260430T12Z_MSC_GDPS_SpecificHumidity_IsbL-0225_LatLon0.15_PT240H.grib2 2026-04-30 16:40 1.3M
20260430T12Z_MSC_GDPS_SpecificHumidity_IsbL-0250_LatLon0.15_PT240H.grib2 2026-04-30 16:40 1.2M
20260430T12Z_MSC_GDPS_SpecificHumidity_IsbL-0275_LatLon0.15_PT240H.grib2 2026-04-30 16:40 1.1M
20260430T12Z_MSC_GDPS_SpecificHumidity_IsbL-0300_LatLon0.15_PT240H.grib2 2026-04-30 16:40 1.2M
20260430T12Z_MSC_GDPS_SpecificHumidity_IsbL-0350_LatLon0.15_PT240H.grib2 2026-04-30 16:40 1.2M
20260430T12Z_MSC_GDPS_SpecificHumidity_IsbL-0400_LatLon0.15_PT240H.grib2 2026-04-30 16:40 1.4M
20260430T12Z_MSC_GDPS_SpecificHumidity_IsbL-0450_LatLon0.15_PT240H.grib2 2026-04-30 16:40 1.3M
20260430T12Z_MSC_GDPS_SpecificHumidity_IsbL-0500_LatLon0.15_PT240H.grib2 2026-04-30 16:40 1.5M
20260430T12Z_MSC_GDPS_SpecificHumidity_IsbL-0550_LatLon0.15_PT240H.grib2 2026-04-30 16:40 1.6M
20260430T12Z_MSC_GDPS_SpecificHumidity_IsbL-0600_LatLon0.15_PT240H.grib2 2026-04-30 16:40 1.4M
20260430T12Z_MSC_GDPS_SpecificHumidity_IsbL-0650_LatLon0.15_PT240H.grib2 2026-04-30 16:40 1.5M
20260430T12Z_MSC_GDPS_SpecificHumidity_IsbL-0700_LatLon0.15_PT240H.grib2 2026-04-30 16:40 1.6M
20260430T12Z_MSC_GDPS_SpecificHumidity_IsbL-0750_LatLon0.15_PT240H.grib2 2026-04-30 16:40 1.7M
20260430T12Z_MSC_GDPS_SpecificHumidity_IsbL-0800_LatLon0.15_PT240H.grib2 2026-04-30 16:40 1.9M
20260430T12Z_MSC_GDPS_SpecificHumidity_IsbL-0850_LatLon0.15_PT240H.grib2 2026-04-30 16:40 2.0M
20260430T12Z_MSC_GDPS_SpecificHumidity_IsbL-0875_LatLon0.15_PT240H.grib2 2026-04-30 16:40 2.0M
20260430T12Z_MSC_GDPS_SpecificHumidity_IsbL-0900_LatLon0.15_PT240H.grib2 2026-04-30 16:40 1.6M
20260430T12Z_MSC_GDPS_SpecificHumidity_IsbL-0925_LatLon0.15_PT240H.grib2 2026-04-30 16:40 1.6M
20260430T12Z_MSC_GDPS_SpecificHumidity_IsbL-0950_LatLon0.15_PT240H.grib2 2026-04-30 16:40 1.6M
20260430T12Z_MSC_GDPS_SpecificHumidity_IsbL-0970_LatLon0.15_PT240H.grib2 2026-04-30 16:40 1.6M
20260430T12Z_MSC_GDPS_SpecificHumidity_IsbL-0985_LatLon0.15_PT240H.grib2 2026-04-30 16:40 1.5M
20260430T12Z_MSC_GDPS_SpecificHumidity_IsbL-1000_LatLon0.15_PT240H.grib2 2026-04-30 16:40 1.5M
20260430T12Z_MSC_GDPS_SpecificHumidity_IsbL-1015_LatLon0.15_PT240H.grib2 2026-04-30 16:40 1.5M
20260430T12Z_MSC_GDPS_SpecificHumidity_Sfc_LatLon0.15_PT240H.grib2 2026-04-30 16:40 603K
20260430T12Z_MSC_GDPS_Thickness_IsbL-0850to0700_LatLon0.15_PT240H.grib2 2026-04-30 16:40 471K
20260430T12Z_MSC_GDPS_Thickness_IsbL-1000to0500_LatLon0.15_PT240H.grib2 2026-04-30 16:40 373K
20260430T12Z_MSC_GDPS_Thickness_IsbL-1000to0850_LatLon0.15_PT240H.grib2 2026-04-30 16:40 491K
20260430T12Z_MSC_GDPS_TotalCloudCover_Sfc_LatLon0.15_PT240H.grib2 2026-04-30 16:40 854K
20260430T12Z_MSC_GDPS_TotalTotalsIndex_Sfc_LatLon0.15_PT240H.grib2 2026-04-30 16:40 6.2M
20260430T12Z_MSC_GDPS_UVIndex-ClearSky_Sfc_LatLon0.15_PT240H.grib2 2026-04-30 16:46 1.0M
20260430T12Z_MSC_GDPS_UVIndex_Sfc_LatLon0.15_PT240H.grib2 2026-04-30 16:46 1.5M
20260430T12Z_MSC_GDPS_UpwardLongwaveRadiationFlux_NTAtm_LatLon0.15_PT240H.grib2 2026-04-30 16:40 843K
20260430T12Z_MSC_GDPS_VerticalVelocity_IsbL-0200_LatLon0.15_PT240H.grib2 2026-04-30 16:40 1.2M
20260430T12Z_MSC_GDPS_VerticalVelocity_IsbL-0250_LatLon0.15_PT240H.grib2 2026-04-30 16:40 837K
20260430T12Z_MSC_GDPS_VerticalVelocity_IsbL-0500_LatLon0.15_PT240H.grib2 2026-04-30 16:40 1.1M
20260430T12Z_MSC_GDPS_VerticalVelocity_IsbL-0600_LatLon0.15_PT240H.grib2 2026-04-30 16:40 1.1M
20260430T12Z_MSC_GDPS_VerticalVelocity_IsbL-0700_LatLon0.15_PT240H.grib2 2026-04-30 16:40 1.1M
20260430T12Z_MSC_GDPS_VerticalVelocity_IsbL-0850_LatLon0.15_PT240H.grib2 2026-04-30 16:40 1.3M
20260430T12Z_MSC_GDPS_WindChill_Sfc_LatLon0.15_PT240H.grib2 2026-04-30 16:40 5.3M
20260430T12Z_MSC_GDPS_WindDir_AGL-10m_LatLon0.15_PT240H.grib2 2026-04-30 16:40 1.3M
20260430T12Z_MSC_GDPS_WindDir_AGL-120m_LatLon0.15_PT240H.grib2 2026-04-30 16:40 1.4M
20260430T12Z_MSC_GDPS_WindDir_AGL-40m_LatLon0.15_PT240H.grib2 2026-04-30 16:40 1.4M
20260430T12Z_MSC_GDPS_WindDir_AGL-80m_LatLon0.15_PT240H.grib2 2026-04-30 16:40 1.4M
20260430T12Z_MSC_GDPS_WindDir_IsbL-0001_LatLon0.15_PT240H.grib2 2026-04-30 16:40 647K
20260430T12Z_MSC_GDPS_WindDir_IsbL-0005_LatLon0.15_PT240H.grib2 2026-04-30 16:40 813K
20260430T12Z_MSC_GDPS_WindDir_IsbL-0010_LatLon0.15_PT240H.grib2 2026-04-30 16:40 824K
20260430T12Z_MSC_GDPS_WindDir_IsbL-0020_LatLon0.15_PT240H.grib2 2026-04-30 16:40 922K
20260430T12Z_MSC_GDPS_WindDir_IsbL-0030_LatLon0.15_PT240H.grib2 2026-04-30 16:40 919K
20260430T12Z_MSC_GDPS_WindDir_IsbL-0050_LatLon0.15_PT240H.grib2 2026-04-30 16:40 957K
20260430T12Z_MSC_GDPS_WindDir_IsbL-0100_LatLon0.15_PT240H.grib2 2026-04-30 16:40 1.0M
20260430T12Z_MSC_GDPS_WindDir_IsbL-0150_LatLon0.15_PT240H.grib2 2026-04-30 16:40 1.0M
20260430T12Z_MSC_GDPS_WindDir_IsbL-0175_LatLon0.15_PT240H.grib2 2026-04-30 16:40 1.0M
20260430T12Z_MSC_GDPS_WindDir_IsbL-0200_LatLon0.15_PT240H.grib2 2026-04-30 16:40 1.1M
20260430T12Z_MSC_GDPS_WindDir_IsbL-0225_LatLon0.15_PT240H.grib2 2026-04-30 16:40 1.1M
20260430T12Z_MSC_GDPS_WindDir_IsbL-0250_LatLon0.15_PT240H.grib2 2026-04-30 16:40 1.1M
20260430T12Z_MSC_GDPS_WindDir_IsbL-0275_LatLon0.15_PT240H.grib2 2026-04-30 16:40 1.2M
20260430T12Z_MSC_GDPS_WindDir_IsbL-0300_LatLon0.15_PT240H.grib2 2026-04-30 16:40 1.2M
20260430T12Z_MSC_GDPS_WindDir_IsbL-0350_LatLon0.15_PT240H.grib2 2026-04-30 16:40 1.2M
20260430T12Z_MSC_GDPS_WindDir_IsbL-0400_LatLon0.15_PT240H.grib2 2026-04-30 16:40 1.3M
20260430T12Z_MSC_GDPS_WindDir_IsbL-0450_LatLon0.15_PT240H.grib2 2026-04-30 16:40 1.3M
20260430T12Z_MSC_GDPS_WindDir_IsbL-0500_LatLon0.15_PT240H.grib2 2026-04-30 16:40 1.4M
20260430T12Z_MSC_GDPS_WindDir_IsbL-0550_LatLon0.15_PT240H.grib2 2026-04-30 16:40 1.4M
20260430T12Z_MSC_GDPS_WindDir_IsbL-0600_LatLon0.15_PT240H.grib2 2026-04-30 16:40 1.5M
20260430T12Z_MSC_GDPS_WindDir_IsbL-0650_LatLon0.15_PT240H.grib2 2026-04-30 16:40 1.5M
20260430T12Z_MSC_GDPS_WindDir_IsbL-0700_LatLon0.15_PT240H.grib2 2026-04-30 16:40 1.6M
20260430T12Z_MSC_GDPS_WindDir_IsbL-0750_LatLon0.15_PT240H.grib2 2026-04-30 16:40 1.7M
20260430T12Z_MSC_GDPS_WindDir_IsbL-0800_LatLon0.15_PT240H.grib2 2026-04-30 16:40 1.8M
20260430T12Z_MSC_GDPS_WindDir_IsbL-0850_LatLon0.15_PT240H.grib2 2026-04-30 16:40 1.9M
20260430T12Z_MSC_GDPS_WindDir_IsbL-0875_LatLon0.15_PT240H.grib2 2026-04-30 16:40 2.0M
20260430T12Z_MSC_GDPS_WindDir_IsbL-0900_LatLon0.15_PT240H.grib2 2026-04-30 16:40 2.0M
20260430T12Z_MSC_GDPS_WindDir_IsbL-0925_LatLon0.15_PT240H.grib2 2026-04-30 16:40 2.0M
20260430T12Z_MSC_GDPS_WindDir_IsbL-0950_LatLon0.15_PT240H.grib2 2026-04-30 16:40 2.0M
20260430T12Z_MSC_GDPS_WindDir_IsbL-0970_LatLon0.15_PT240H.grib2 2026-04-30 16:40 2.0M
20260430T12Z_MSC_GDPS_WindDir_IsbL-0985_LatLon0.15_PT240H.grib2 2026-04-30 16:40 2.0M
20260430T12Z_MSC_GDPS_WindDir_IsbL-1000_LatLon0.15_PT240H.grib2 2026-04-30 16:40 2.1M
20260430T12Z_MSC_GDPS_WindDir_IsbL-1015_LatLon0.15_PT240H.grib2 2026-04-30 16:40 2.0M
20260430T12Z_MSC_GDPS_WindGust-Max_AGL-10m_LatLon0.15_PT240H.grib2 2026-04-30 16:40 2.2M
20260430T12Z_MSC_GDPS_WindGust-Min_AGL-10m_LatLon0.15_PT240H.grib2 2026-04-30 16:40 2.2M
20260430T12Z_MSC_GDPS_WindGust_AGL-10m_LatLon0.15_PT240H.grib2 2026-04-30 16:40 2.1M
20260430T12Z_MSC_GDPS_WindSpeed_AGL-10m_LatLon0.15_PT240H.grib2 2026-04-30 16:40 1.1M
20260430T12Z_MSC_GDPS_WindSpeed_AGL-120m_LatLon0.15_PT240H.grib2 2026-04-30 16:40 1.2M
20260430T12Z_MSC_GDPS_WindSpeed_AGL-40m_LatLon0.15_PT240H.grib2 2026-04-30 16:40 1.2M
20260430T12Z_MSC_GDPS_WindSpeed_AGL-80m_LatLon0.15_PT240H.grib2 2026-04-30 16:40 1.2M
20260430T12Z_MSC_GDPS_WindSpeed_IsbL-0001_LatLon0.15_PT240H.grib2 2026-04-30 16:40 650K
20260430T12Z_MSC_GDPS_WindSpeed_IsbL-0005_LatLon0.15_PT240H.grib2 2026-04-30 16:40 694K
20260430T12Z_MSC_GDPS_WindSpeed_IsbL-0010_LatLon0.15_PT240H.grib2 2026-04-30 16:40 622K
20260430T12Z_MSC_GDPS_WindSpeed_IsbL-0020_LatLon0.15_PT240H.grib2 2026-04-30 16:40 659K
20260430T12Z_MSC_GDPS_WindSpeed_IsbL-0030_LatLon0.15_PT240H.grib2 2026-04-30 16:40 860K
20260430T12Z_MSC_GDPS_WindSpeed_IsbL-0050_LatLon0.15_PT240H.grib2 2026-04-30 16:40 895K
20260430T12Z_MSC_GDPS_WindSpeed_IsbL-0100_LatLon0.15_PT240H.grib2 2026-04-30 16:40 1.1M
20260430T12Z_MSC_GDPS_WindSpeed_IsbL-0150_LatLon0.15_PT240H.grib2 2026-04-30 16:40 928K
20260430T12Z_MSC_GDPS_WindSpeed_IsbL-0175_LatLon0.15_PT240H.grib2 2026-04-30 16:40 1.0M
20260430T12Z_MSC_GDPS_WindSpeed_IsbL-0200_LatLon0.15_PT240H.grib2 2026-04-30 16:40 1.0M
20260430T12Z_MSC_GDPS_WindSpeed_IsbL-0225_LatLon0.15_PT240H.grib2 2026-04-30 16:40 1.1M
20260430T12Z_MSC_GDPS_WindSpeed_IsbL-0250_LatLon0.15_PT240H.grib2 2026-04-30 16:40 1.1M
20260430T12Z_MSC_GDPS_WindSpeed_IsbL-0275_LatLon0.15_PT240H.grib2 2026-04-30 16:40 1.1M
20260430T12Z_MSC_GDPS_WindSpeed_IsbL-0300_LatLon0.15_PT240H.grib2 2026-04-30 16:40 1.1M
20260430T12Z_MSC_GDPS_WindSpeed_IsbL-0350_LatLon0.15_PT240H.grib2 2026-04-30 16:40 1.1M
20260430T12Z_MSC_GDPS_WindSpeed_IsbL-0400_LatLon0.15_PT240H.grib2 2026-04-30 16:40 1.1M
20260430T12Z_MSC_GDPS_WindSpeed_IsbL-0450_LatLon0.15_PT240H.grib2 2026-04-30 16:40 1.1M
20260430T12Z_MSC_GDPS_WindSpeed_IsbL-0500_LatLon0.15_PT240H.grib2 2026-04-30 16:40 1.1M
20260430T12Z_MSC_GDPS_WindSpeed_IsbL-0550_LatLon0.15_PT240H.grib2 2026-04-30 16:40 1.4M
20260430T12Z_MSC_GDPS_WindSpeed_IsbL-0600_LatLon0.15_PT240H.grib2 2026-04-30 16:40 1.4M
20260430T12Z_MSC_GDPS_WindSpeed_IsbL-0650_LatLon0.15_PT240H.grib2 2026-04-30 16:40 1.4M
20260430T12Z_MSC_GDPS_WindSpeed_IsbL-0700_LatLon0.15_PT240H.grib2 2026-04-30 16:40 1.5M
20260430T12Z_MSC_GDPS_WindSpeed_IsbL-0750_LatLon0.15_PT240H.grib2 2026-04-30 16:40 1.6M
20260430T12Z_MSC_GDPS_WindSpeed_IsbL-0800_LatLon0.15_PT240H.grib2 2026-04-30 16:40 1.6M
20260430T12Z_MSC_GDPS_WindSpeed_IsbL-0850_LatLon0.15_PT240H.grib2 2026-04-30 16:40 1.7M
20260430T12Z_MSC_GDPS_WindSpeed_IsbL-0875_LatLon0.15_PT240H.grib2 2026-04-30 16:40 1.8M
20260430T12Z_MSC_GDPS_WindSpeed_IsbL-0900_LatLon0.15_PT240H.grib2 2026-04-30 16:40 1.8M
20260430T12Z_MSC_GDPS_WindSpeed_IsbL-0925_LatLon0.15_PT240H.grib2 2026-04-30 16:40 1.8M
20260430T12Z_MSC_GDPS_WindSpeed_IsbL-0950_LatLon0.15_PT240H.grib2 2026-04-30 16:40 1.9M
20260430T12Z_MSC_GDPS_WindSpeed_IsbL-0970_LatLon0.15_PT240H.grib2 2026-04-30 16:40 1.9M
20260430T12Z_MSC_GDPS_WindSpeed_IsbL-0985_LatLon0.15_PT240H.grib2 2026-04-30 16:40 1.9M
20260430T12Z_MSC_GDPS_WindSpeed_IsbL-1000_LatLon0.15_PT240H.grib2 2026-04-30 16:40 1.8M
20260430T12Z_MSC_GDPS_WindSpeed_IsbL-1015_LatLon0.15_PT240H.grib2 2026-04-30 16:40 1.8M
20260430T12Z_MSC_GDPS_WindU_AGL-10m_LatLon0.15_PT240H.grib2 2026-04-30 16:40 1.3M
20260430T12Z_MSC_GDPS_WindU_AGL-120m_LatLon0.15_PT240H.grib2 2026-04-30 16:40 969K
20260430T12Z_MSC_GDPS_WindU_AGL-40m_LatLon0.15_PT240H.grib2 2026-04-30 16:40 966K
20260430T12Z_MSC_GDPS_WindU_AGL-80m_LatLon0.15_PT240H.grib2 2026-04-30 16:40 970K
20260430T12Z_MSC_GDPS_WindU_IsbL-0001_LatLon0.15_PT240H.grib2 2026-04-30 16:40 506K
20260430T12Z_MSC_GDPS_WindU_IsbL-0005_LatLon0.15_PT240H.grib2 2026-04-30 16:40 693K
20260430T12Z_MSC_GDPS_WindU_IsbL-0010_LatLon0.15_PT240H.grib2 2026-04-30 16:40 701K
20260430T12Z_MSC_GDPS_WindU_IsbL-0020_LatLon0.15_PT240H.grib2 2026-04-30 16:40 726K
20260430T12Z_MSC_GDPS_WindU_IsbL-0030_LatLon0.15_PT240H.grib2 2026-04-30 16:40 735K
20260430T12Z_MSC_GDPS_WindU_IsbL-0050_LatLon0.15_PT240H.grib2 2026-04-30 16:40 757K
20260430T12Z_MSC_GDPS_WindU_IsbL-0100_LatLon0.15_PT240H.grib2 2026-04-30 16:40 919K
20260430T12Z_MSC_GDPS_WindU_IsbL-0150_LatLon0.15_PT240H.grib2 2026-04-30 16:40 1.0M
20260430T12Z_MSC_GDPS_WindU_IsbL-0175_LatLon0.15_PT240H.grib2 2026-04-30 16:40 1.0M
20260430T12Z_MSC_GDPS_WindU_IsbL-0200_LatLon0.15_PT240H.grib2 2026-04-30 16:40 829K
20260430T12Z_MSC_GDPS_WindU_IsbL-0225_LatLon0.15_PT240H.grib2 2026-04-30 16:40 841K
20260430T12Z_MSC_GDPS_WindU_IsbL-0250_LatLon0.15_PT240H.grib2 2026-04-30 16:40 846K
20260430T12Z_MSC_GDPS_WindU_IsbL-0275_LatLon0.15_PT240H.grib2 2026-04-30 16:40 875K
20260430T12Z_MSC_GDPS_WindU_IsbL-0300_LatLon0.15_PT240H.grib2 2026-04-30 16:40 869K
20260430T12Z_MSC_GDPS_WindU_IsbL-0350_LatLon0.15_PT240H.grib2 2026-04-30 16:40 1.1M
20260430T12Z_MSC_GDPS_WindU_IsbL-0400_LatLon0.15_PT240H.grib2 2026-04-30 16:40 1.1M
20260430T12Z_MSC_GDPS_WindU_IsbL-0450_LatLon0.15_PT240H.grib2 2026-04-30 16:40 1.1M
20260430T12Z_MSC_GDPS_WindU_IsbL-0500_LatLon0.15_PT240H.grib2 2026-04-30 16:40 1.1M
20260430T12Z_MSC_GDPS_WindU_IsbL-0550_LatLon0.15_PT240H.grib2 2026-04-30 16:40 1.1M
20260430T12Z_MSC_GDPS_WindU_IsbL-0600_LatLon0.15_PT240H.grib2 2026-04-30 16:40 1.1M
20260430T12Z_MSC_GDPS_WindU_IsbL-0650_LatLon0.15_PT240H.grib2 2026-04-30 16:40 1.2M
20260430T12Z_MSC_GDPS_WindU_IsbL-0700_LatLon0.15_PT240H.grib2 2026-04-30 16:40 1.2M
20260430T12Z_MSC_GDPS_WindU_IsbL-0750_LatLon0.15_PT240H.grib2 2026-04-30 16:40 1.3M
20260430T12Z_MSC_GDPS_WindU_IsbL-0800_LatLon0.15_PT240H.grib2 2026-04-30 16:40 1.4M
20260430T12Z_MSC_GDPS_WindU_IsbL-0850_LatLon0.15_PT240H.grib2 2026-04-30 16:40 1.4M
20260430T12Z_MSC_GDPS_WindU_IsbL-0875_LatLon0.15_PT240H.grib2 2026-04-30 16:40 1.5M
20260430T12Z_MSC_GDPS_WindU_IsbL-0900_LatLon0.15_PT240H.grib2 2026-04-30 16:40 1.5M
20260430T12Z_MSC_GDPS_WindU_IsbL-0925_LatLon0.15_PT240H.grib2 2026-04-30 16:40 1.5M
20260430T12Z_MSC_GDPS_WindU_IsbL-0950_LatLon0.15_PT240H.grib2 2026-04-30 16:40 1.4M
20260430T12Z_MSC_GDPS_WindU_IsbL-0970_LatLon0.15_PT240H.grib2 2026-04-30 16:40 1.4M
20260430T12Z_MSC_GDPS_WindU_IsbL-0985_LatLon0.15_PT240H.grib2 2026-04-30 16:40 1.4M
20260430T12Z_MSC_GDPS_WindU_IsbL-1000_LatLon0.15_PT240H.grib2 2026-04-30 16:40 1.4M
20260430T12Z_MSC_GDPS_WindU_IsbL-1015_LatLon0.15_PT240H.grib2 2026-04-30 16:40 1.3M
20260430T12Z_MSC_GDPS_WindV_AGL-10m_LatLon0.15_PT240H.grib2 2026-04-30 16:40 1.3M
20260430T12Z_MSC_GDPS_WindV_AGL-120m_LatLon0.15_PT240H.grib2 2026-04-30 16:40 972K
20260430T12Z_MSC_GDPS_WindV_AGL-40m_LatLon0.15_PT240H.grib2 2026-04-30 16:40 967K
20260430T12Z_MSC_GDPS_WindV_AGL-80m_LatLon0.15_PT240H.grib2 2026-04-30 16:40 972K
20260430T12Z_MSC_GDPS_WindV_IsbL-0001_LatLon0.15_PT240H.grib2 2026-04-30 16:40 789K
20260430T12Z_MSC_GDPS_WindV_IsbL-0005_LatLon0.15_PT240H.grib2 2026-04-30 16:40 772K
20260430T12Z_MSC_GDPS_WindV_IsbL-0010_LatLon0.15_PT240H.grib2 2026-04-30 16:40 794K
20260430T12Z_MSC_GDPS_WindV_IsbL-0020_LatLon0.15_PT240H.grib2 2026-04-30 16:40 846K
20260430T12Z_MSC_GDPS_WindV_IsbL-0030_LatLon0.15_PT240H.grib2 2026-04-30 16:40 855K
20260430T12Z_MSC_GDPS_WindV_IsbL-0050_LatLon0.15_PT240H.grib2 2026-04-30 16:40 1.0M
20260430T12Z_MSC_GDPS_WindV_IsbL-0100_LatLon0.15_PT240H.grib2 2026-04-30 16:40 1.1M
20260430T12Z_MSC_GDPS_WindV_IsbL-0150_LatLon0.15_PT240H.grib2 2026-04-30 16:40 1.0M
20260430T12Z_MSC_GDPS_WindV_IsbL-0175_LatLon0.15_PT240H.grib2 2026-04-30 16:40 1.0M
20260430T12Z_MSC_GDPS_WindV_IsbL-0200_LatLon0.15_PT240H.grib2 2026-04-30 16:40 828K
20260430T12Z_MSC_GDPS_WindV_IsbL-0225_LatLon0.15_PT240H.grib2 2026-04-30 16:40 837K
20260430T12Z_MSC_GDPS_WindV_IsbL-0250_LatLon0.15_PT240H.grib2 2026-04-30 16:40 840K
20260430T12Z_MSC_GDPS_WindV_IsbL-0275_LatLon0.15_PT240H.grib2 2026-04-30 16:40 928K
20260430T12Z_MSC_GDPS_WindV_IsbL-0300_LatLon0.15_PT240H.grib2 2026-04-30 16:40 921K
20260430T12Z_MSC_GDPS_WindV_IsbL-0350_LatLon0.15_PT240H.grib2 2026-04-30 16:40 874K
20260430T12Z_MSC_GDPS_WindV_IsbL-0400_LatLon0.15_PT240H.grib2 2026-04-30 16:40 877K
20260430T12Z_MSC_GDPS_WindV_IsbL-0450_LatLon0.15_PT240H.grib2 2026-04-30 16:40 878K
20260430T12Z_MSC_GDPS_WindV_IsbL-0500_LatLon0.15_PT240H.grib2 2026-04-30 16:40 1.1M
20260430T12Z_MSC_GDPS_WindV_IsbL-0550_LatLon0.15_PT240H.grib2 2026-04-30 16:40 1.1M
20260430T12Z_MSC_GDPS_WindV_IsbL-0600_LatLon0.15_PT240H.grib2 2026-04-30 16:40 1.1M
20260430T12Z_MSC_GDPS_WindV_IsbL-0650_LatLon0.15_PT240H.grib2 2026-04-30 16:40 1.2M
20260430T12Z_MSC_GDPS_WindV_IsbL-0700_LatLon0.15_PT240H.grib2 2026-04-30 16:40 1.2M
20260430T12Z_MSC_GDPS_WindV_IsbL-0750_LatLon0.15_PT240H.grib2 2026-04-30 16:40 1.3M
20260430T12Z_MSC_GDPS_WindV_IsbL-0800_LatLon0.15_PT240H.grib2 2026-04-30 16:40 1.3M
20260430T12Z_MSC_GDPS_WindV_IsbL-0850_LatLon0.15_PT240H.grib2 2026-04-30 16:40 1.4M
20260430T12Z_MSC_GDPS_WindV_IsbL-0875_LatLon0.15_PT240H.grib2 2026-04-30 16:40 1.4M
20260430T12Z_MSC_GDPS_WindV_IsbL-0900_LatLon0.15_PT240H.grib2 2026-04-30 16:40 1.5M
20260430T12Z_MSC_GDPS_WindV_IsbL-0925_LatLon0.15_PT240H.grib2 2026-04-30 16:40 1.5M
20260430T12Z_MSC_GDPS_WindV_IsbL-0950_LatLon0.15_PT240H.grib2 2026-04-30 16:40 1.4M
20260430T12Z_MSC_GDPS_WindV_IsbL-0970_LatLon0.15_PT240H.grib2 2026-04-30 16:40 1.4M
20260430T12Z_MSC_GDPS_WindV_IsbL-0985_LatLon0.15_PT240H.grib2 2026-04-30 16:40 1.4M
20260430T12Z_MSC_GDPS_WindV_IsbL-1000_LatLon0.15_PT240H.grib2 2026-04-30 16:40 1.4M
20260430T12Z_MSC_GDPS_WindV_IsbL-1015_LatLon0.15_PT240H.grib2 2026-04-30 16:40 1.4M